GW6861 Weather Reports


time (UTC)temp
C
wind
direction
speed
KPH
gust
KPH
rain 1hr
cm
rain 24hr
cm
rain mn
cm
humidity
%
barometer
mb
20260507164504 13 315 1.6 11.3 0.00 0.74 0.00 45 1006.7
20260507164003 13 334 3.2 20.9 0.00 0.74 0.00 42 1006.8
20260507163713 14 342 4.8 20.9 0.00 0.74 0.00 48 1006.7
20260507163003 13 356 6.4 20.9 0.00 0.74 0.00 44 1006.7
20260507162505 13 348 4.8 16.1 0.00 0.74 0.00 47 1006.8
20260507162003 13 325 3.2 19.3 0.00 0.74 0.00 44 1006.9
20260507161503 12 349 4.8 22.5 0.00 0.74 0.00 46 1006.9
20260507161003 12 355 4.8 22.5 0.00 0.74 0.00 44 1006.9
20260507160503 13 338 1.6 16.1 0.00 0.74 0.00 44 1006.9
20260507160003 13 10 1.6 6.4 0.00 0.74 0.00 48 1006.9
20260507155505 13 25 0.0 6.4 0.00 0.74 0.00 45 1006.9
20260507155003 14 291 3.2 16.1 0.00 0.74 0.00 48 1006.9
20260507154503 13 342 4.8 16.1 0.00 0.74 0.00 50 1006.9
20260507154003 13 360 6.4 20.9 0.00 0.74 0.00 45 1007.0
20260507153504 13 347 3.2 20.9 0.00 0.74 0.00 45 1006.9
20260507153214 13 343 1.6 17.7 0.00 0.74 0.00 45 1007.0
20260507152715 13 337 1.6 17.7 0.00 0.74 0.00 45 1007.0
20260507152005 13 314 1.6 14.5 0.00 0.74 0.00 55 1007.2
20260507151508 13 349 1.6 19.3 0.00 0.74 0.00 50 1007.2
20260507151214 13 2 4.8 32.2 0.00 0.74 0.00 47 1007.2
20260507150503 12 9 8.0 32.2 0.00 0.74 0.00 47 1007.2
20260507150213 12 5 4.8 24.1 0.00 0.74 0.00 50 1007.2
20260507145505 13 304 1.6 9.7 0.00 0.74 0.00 56 1007.2
20260507145003 12 346 3.2 14.5 0.00 0.74 0.00 54 1007.3
20260507144503 11 340 4.8 17.7 0.00 0.74 0.00 54 1007.2
20260507144003 12 334 3.2 17.7 0.00 0.74 0.00 60 1007.1
20260507143505 12 294 1.6 17.7 0.00 0.74 0.00 52 1006.9
20260507143003 13 205 1.6 17.7 0.00 0.74 0.00 58 1007.0
20260507142503 13 348 1.6 9.7 0.00 0.74 0.00 59 1007.0
20260507142213 13 344 1.6 9.7 0.00 0.74 0.00 60 1006.9
20260507141714 12 337 1.6 9.7 0.00 0.74 0.00 56 1007.0
20260507141003 12 349 1.6 14.5 0.00 0.74 0.00 67 1006.9
20260507140503 12 28 1.6 12.9 0.00 0.74 0.00 64 1007.1
20260507140003 11 59 0.0 9.7 0.00 0.74 0.00 70 1007.0
20260507135503 11 0 0.0 0.0 0.00 0.74 0.00 73 1007.0
20260507135005 11 0 0.0 0.0 0.00 0.74 0.00 68 1007.0
20260507134503 11 0 0.0 0.0 0.00 0.74 0.00 71 1007.1
20260507134213 11 0 0.0 0.0 0.00 0.74 0.00 67 1007.1
20260507133503 11 348 0.0 8.0 0.00 0.74 0.00 70 1007.0
20260507133005 11 350 0.0 8.0 0.00 0.74 0.00 68 1007.1
20260507132503 11 17 0.0 3.2 0.00 0.74 0.00 70 1007.2
20260507132003 11 0 0.0 0.0 0.00 0.74 0.00 73 1007.3
20260507131714 11 240 0.0 3.2 0.00 0.74 0.00 74 1007.3
20260507131008 11 3 1.6 12.9 0.00 0.74 0.00 70 1007.3
20260507130503 10 335 1.6 12.9 0.00 0.74 0.00 72 1007.4
20260507130213 10 320 1.6 12.9 0.00 0.74 0.00 70 1007.4
20260507125503 10 328 1.6 11.3 0.00 0.74 0.00 70 1007.5
20260507125213 10 350 1.6 14.5 0.00 0.74 0.00 72 1007.5
20260507124716 11 29 1.6 14.5 0.00 0.74 0.00 72 1007.5
20260507124003 10 64 1.6 6.4 0.00 0.74 0.00 72 1007.3
20260507123714 10 360 0.0 6.4 0.00 0.74 0.00 73 1007.3
20260507123213 10 8 1.6 8.0 0.00 0.74 0.00 73 1007.3
20260507122503 10 356 1.6 8.0 0.00 0.74 0.00 73 1007.3
20260507122004 10 13 1.6 11.3 0.00 0.74 0.00 73 1007.2
20260507121715 10 18 1.6 11.3 0.00 0.74 0.00 74 1007.3
20260507121003 10 205 0.0 4.8 0.00 0.74 0.00 76 1007.3
20260507120503 10 205 0.0 4.8 0.00 0.74 0.00 74 1007.2
20260507120004 9 346 0.0 8.0 0.00 0.74 0.00 76 1007.3
20260507115503 9 359 1.6 9.7 0.00 0.74 0.00 76 1007.4
20260507115004 9 358 0.0 9.7 0.00 0.74 0.00 78 1007.4
20260507114503 8 248 0.0 4.8 0.00 0.74 0.00 80 1007.5
20260507114003 8 0 0.0 0.0 0.00 0.74 0.00 82 1007.4
20260507113713 8 324 0.0 4.8 0.00 0.74 0.00 82 1007.4
20260507113003 8 324 0.0 4.8 0.00 0.74 0.00 82 1007.3
20260507112505 7 0 0.0 0.0 0.00 0.74 0.00 83 1007.3
20260507112003 7 178 0.0 6.4 0.00 0.74 0.00 84 1007.4
20260507111503 7 178 0.0 6.4 0.00 0.74 0.00 85 1007.3
20260507111003 7 0 0.0 0.0 0.00 0.74 0.00 86 1007.4
20260507110503 7 0 0.0 0.0 0.00 0.74 0.00 88 1007.4
20260507110003 6 0 0.0 0.0 0.00 0.74 0.00 90 1007.3
20260507105505 6 0 0.0 0.0 0.00 0.74 0.00 90 1007.2
20260507105003 6 0 0.0 0.0 0.00 0.74 0.00 88 1007.0
20260507104504 6 110 0.0 1.6 0.00 0.74 0.00 87 1006.8
20260507104003 6 110 0.0 1.6 0.00 0.74 0.00 88 1006.8
20260507103503 6 0 0.0 0.0 0.00 0.74 0.00 88 1006.7
20260507103003 6 0 0.0 0.0 0.00 0.74 0.00 87 1006.8
20260507102715 6 0 0.0 0.0 0.00 0.74 0.00 87 1006.8
20260507102003 6 0 0.0 0.0 0.00 0.74 0.00 86 1007.0
20260507101503 6 6 0.0 3.2 0.00 0.74 0.00 87 1006.9
20260507101214 6 6 0.0 3.2 0.00 0.74 0.00 87 1006.9
20260507100503 6 0 0.0 0.0 0.00 0.74 0.00 86 1006.8
20260507100003 6 0 0.0 0.0 0.00 0.74 0.00 88 1006.9
20260507095505 6 0 0.0 0.0 0.00 0.74 0.00 87 1007.0
20260507095003 7 0 0.0 0.0 0.00 0.74 0.00 86 1006.9
20260507094503 7 0 0.0 0.0 0.00 0.74 0.00 87 1006.9
20260507094213 6 0 0.0 0.0 0.00 0.74 0.00 87 1006.8
20260507093505 7 0 0.0 0.0 0.00 0.74 0.00 87 1007.0
20260507093003 7 0 0.0 0.0 0.00 0.74 0.00 88 1007.0
20260507092503 7 0 0.0 0.0 0.00 0.74 0.00 88 1007.1
20260507092003 7 0 0.0 0.0 0.00 0.74 0.00 89 1007.1
20260507091503 7 0 0.0 0.0 0.00 0.74 0.00 90 1007.2
20260507091003 7 0 0.0 0.0 0.00 0.74 0.00 91 1007.4
20260507090505 7 0 0.0 0.0 0.00 0.74 0.00 91 1007.4
20260507090004 7 0 0.0 0.0 0.00 0.74 0.00 92 1007.6
20260507085503 7 0 0.0 0.0 0.00 0.74 0.00 92 1007.4
20260507085003 7 0 0.0 0.0 0.00 0.74 0.00 92 1007.2
20260507084503 7 0 0.0 0.0 0.00 0.74 0.00 91 1006.9
20260507084005 7 0 0.0 0.0 0.00 0.74 0.00 92 1006.9
20260507083503 7 0 0.0 0.0 0.00 0.74 0.00 91 1006.9
20260507083003 7 0 0.0 0.0 0.00 0.74 0.00 91 1006.8
20260507082503 7 0 0.0 0.0 0.00 0.74 0.00 91 1006.8
20260507082003 7 0 0.0 0.0 0.00 0.74 0.00 91 1006.9
20260507081503 7 0 0.0 0.0 0.00 0.74 0.00 90 1006.9
20260507081215 7 0 0.0 0.0 0.00 0.74 0.00 90 1006.9
20260507080503 7 0 0.0 0.0 0.00 0.74 0.00 89 1006.8
20260507080213 7 0 0.0 0.0 0.00 0.74 0.00 89 1006.6
20260507075503 7 0 0.0 0.0 0.00 0.74 0.00 88 1006.8
20260507075005 7 18 0.0 1.6 0.00 0.74 0.00 88 1006.9
20260507074503 7 331 0.0 3.2 0.00 0.74 0.00 87 1007.1
20260507074003 7 318 0.0 3.2 0.00 0.74 0.00 89 1007.0
20260507073714 7 0 0.0 0.0 0.00 0.74 0.00 89 1006.9
20260507073003 7 0 0.0 0.0 0.00 0.74 0.00 88 1006.7
20260507072716 7 0 0.0 0.0 0.00 0.74 0.00 89 1006.8
20260507072003 7 0 0.0 0.0 0.00 0.74 0.00 88 1006.6
20260507071503 7 208 0.0 3.2 0.00 0.74 0.00 87 1006.5
20260507071003 7 208 0.0 3.2 0.00 0.74 0.00 88 1006.8
20260507070503 7 1 0.0 6.4 0.00 0.74 0.00 87 1006.8
20260507070212 7 1 0.0 6.4 0.00 0.74 0.00 86 1006.4
20260507065505 7 0 0.0 0.0 0.00 0.74 0.00 87 1006.2
20260507065003 7 0 0.0 0.0 0.00 0.74 0.00 87 1006.5
20260507064503 7 0 0.0 0.0 0.00 0.74 0.00 88 1006.5
20260507064003 7 0 0.0 0.0 0.00 0.74 0.00 87 1006.4
20260507063713 7 0 0.0 0.0 0.00 0.74 0.00 88 1006.2
20260507063003 8 0 0.0 0.0 0.00 0.74 0.00 88 1006.8
20260507062505 8 0 0.0 0.0 0.00 0.74 0.00 89 1006.8
20260507062214 8 0 0.0 0.0 0.00 0.74 0.00 90 1006.7
20260507061503 8 0 0.0 0.0 0.00 0.74 0.00 90 1006.7
20260507061003 8 0 0.0 0.0 0.00 0.74 0.00 90 1006.7
20260507060503 8 0 0.0 0.0 0.00 0.74 0.00 90 1006.9
20260507060005 8 0 0.0 0.0 0.00 0.74 0.00 90 1006.8
20260507055503 8 0 0.0 0.0 0.00 0.74 0.00 90 1006.4
20260507055003 8 0 0.0 0.0 0.00 0.74 0.00 91 1006.6
20260507054503 8 0 0.0 0.0 0.00 0.74 0.00 91 1006.7
20260507054003 8 0 0.0 0.0 0.00 0.74 0.00 91 1006.7
20260507053503 8 0 0.0 0.0 0.00 0.74 0.00 90 1006.8
20260507053005 8 0 0.0 0.0 0.00 0.74 0.00 90 1006.7
20260507052713 8 0 0.0 0.0 0.00 0.74 0.00 90 1006.8
20260507052003 8 0 0.0 0.0 0.00 0.74 0.00 90 1006.7
20260507051713 8 0 0.0 0.0 0.00 0.74 0.00 90 1006.7
20260507051005 8 0 0.0 0.0 0.00 0.74 0.00 89 1006.6
20260507050503 8 0 0.0 0.0 0.00 0.74 0.00 90 1006.3
20260507050003 8 0 0.0 0.0 0.00 0.74 0.00 90 1006.5
20260507045713 8 69 0.0 1.6 0.00 0.74 0.00 89 1006.4
20260507045214 8 69 0.0 1.6 0.00 0.74 0.00 89 1006.3
20260507044505 8 0 0.0 0.0 0.00 0.74 0.00 90 1006.6
20260507044003 8 0 0.0 0.0 0.00 0.74 0.00 90 1006.5
20260507043503 8 0 0.0 0.0 0.00 0.74 0.00 90 1006.5
20260507043003 8 0 0.0 0.0 0.00 0.74 0.00 89 1006.5
20260507042503 8 351 0.0 3.2 0.00 0.74 0.00 88 1006.4
20260507042005 8 348 0.0 6.4 0.00 0.74 0.00 89 1006.4
20260507041503 8 321 1.6 14.5 0.00 0.74 0.00 89 1006.8
20260507041003 8 323 3.2 14.5 0.00 0.74 0.00 88 1007.0
20260507040712 8 323 3.2 14.5 0.00 0.74 0.00 89 1006.7
20260507040003 8 302 0.0 11.3 0.00 0.74 0.00 90 1006.8
20260507035714 8 260 0.0 4.8 0.00 0.74 0.74 90 1006.7
20260507035213 9 326 0.0 6.4 0.03 0.74 0.74 90 1006.6
20260507034503 9 349 0.0 6.4 0.08 0.74 0.74 90 1006.6
20260507034003 9 183 0.0 6.4 0.10 0.74 0.74 91 1006.4
20260507033505 9 181 0.0 6.4 0.10 0.74 0.74 91 1006.4
20260507033004 10 354 0.0 6.4 0.10 0.74 0.74 91 1006.3
20260507032503 10 354 0.0 6.4 0.10 0.74 0.74 92 1006.3
20260507032003 10 0 0.0 0.0 0.13 0.74 0.74 92 1006.3
20260507031503 10 50 0.0 3.2 0.13 0.74 0.74 92 1006.3
20260507031005 10 7 0.0 3.2 0.13 0.74 0.74 92 1006.2
20260507030503 10 350 0.0 3.2 0.13 0.74 0.74 91 1006.3
20260507030003 10 220 0.0 6.4 0.13 0.74 0.74 91 1006.4
20260507025503 10 265 0.0 8.0 0.13 0.74 0.74 91 1006.4
20260507025215 10 285 1.6 9.7 0.10 0.71 0.71 90 1006.5
20260507024503 11 317 1.6 14.5 0.05 0.66 0.66 90 1006.5
20260507024003 11 344 3.2 19.3 0.03 0.64 0.64 89 1006.4
20260507023503 11 343 4.8 19.3 0.05 0.64 0.64 89 1006.3
20260507023005 11 323 3.2 11.3 0.08 0.64 0.64 90 1006.2
20260507022503 11 357 1.6 9.7 0.08 0.64 0.64 90 1006.1
20260507022003 11 324 0.0 8.0 0.08 0.61 0.61 91 1005.9
20260507021714 11 323 0.0 8.0 0.10 0.61 0.61 91 1005.9
20260507021005 12 288 0.0 8.0 0.13 0.61 0.61 91 1005.8
20260507020503 12 253 0.0 8.0 0.15 0.61 0.61 91 1005.6
20260507020003 12 331 0.0 11.3 0.18 0.61 0.61 91 1005.5
20260507015503 12 336 0.0 11.3 0.23 0.61 0.61 91 1005.4
20260507015005 12 11 0.0 3.2 0.23 0.61 0.61 92 1005.4
20260507014714 12 114 0.0 0.0 0.23 0.61 0.61 92 1005.4
20260507014212 12 0 0.0 0.0 0.23 0.61 0.61 92 1005.3
20260507013503 12 359 0.0 4.8 0.20 0.58 0.58 91 1005.1
20260507013003 12 359 0.0 4.8 0.18 0.56 0.56 91 1005.1
20260507012505 13 208 0.0 6.4 0.18 0.56 0.56 92 1005.1
20260507012003 13 252 0.0 6.4 0.15 0.53 0.53 91 1005.1
20260507011503 13 326 1.6 8.0 0.13 0.51 0.51 90 1005.1
20260507010505 14 350 1.6 9.7 0.08 0.46 0.46 90 1004.8
20260507010003 14 97 0.0 3.2 0.05 0.43 0.43 90 1004.7
20260507005713 15 0 0.0 0.0 0.03 0.41 0.41 91 1004.7
20260507005214 15 0 0.0 0.0 0.00 0.38 0.38 90 1004.4
20260507004505 15 0 0.0 0.0 0.00 0.38 0.38 90 1004.2
20260507004003 15 0 0.0 0.0 0.00 0.38 0.38 90 1004.1
20260507003508 15 0 0.0 0.0 0.00 0.38 0.38 90 1004.1
20260507003005 15 0 0.0 0.0 0.00 0.38 0.38 89 1004.0
20260507002713 15 0 0.0 0.0 0.00 0.38 0.38 89 1003.9
20260507002003 15 0 0.0 0.0 0.00 0.38 0.38 89 1004.0
20260507001503 15 0 0.0 0.0 0.00 0.38 0.38 88 1003.9
20260507001003 15 0 0.0 0.0 0.00 0.38 0.38 88 1004.0
20260507000713 15 211 0.0 1.6 0.00 0.38 0.38 89 1003.9
20260507000005 15 207 0.0 4.8 0.00 0.38 0.38 88 1003.8
20260506235503 15 207 0.0 4.8 0.00 0.38 0.38 89 1003.8
20260506235003 15 0 0.0 0.0 0.00 0.38 0.38 89 1003.7
20260506234503 15 0 0.0 0.0 0.00 0.38 0.38 89 1003.6
20260506234003 15 0 0.0 0.0 0.00 0.38 0.38 89 1003.6
20260506233505 15 0 0.0 0.0 0.00 0.38 0.38 89 1003.6
20260506233214 15 225 0.0 3.2 0.00 0.38 0.38 89 1003.5
20260506232713 15 206 0.0 3.2 0.00 0.38 0.38 88 1003.6
20260506232214 15 168 0.0 1.6 0.00 0.38 0.38 88 1003.6
20260506231504 15 210 1.6 14.5 0.00 0.38 0.38 88 1003.7
20260506231003 15 215 1.6 14.5 0.00 0.38 0.38 87 1003.7
20260506230503 15 225 0.0 6.4 0.00 0.38 0.38 88 1003.7
20260506230003 15 202 1.6 9.7 0.00 0.38 0.38 88 1003.7
20260506225505 15 199 1.6 9.7 0.00 0.38 0.38 87 1003.7
20260506225003 15 206 0.0 9.7 0.00 0.38 0.38 87 1003.7
20260506224503 15 209 0.0 9.7 0.00 0.38 0.38 87 1003.7
20260506224003 15 182 1.6 12.9 0.00 0.38 0.38 87 1003.7
20260506223503 15 186 1.6 12.9 0.00 0.38 0.38 87 1003.7
20260506223005 15 207 1.6 8.0 0.00 0.38 0.38 87 1003.7
20260506222712 15 201 1.6 11.3 0.00 0.38 0.38 87 1003.7
20260506222003 15 190 1.6 11.3 0.00 0.38 0.38 87 1003.9
20260506221504 16 190 1.6 9.7 0.00 0.38 0.38 87 1003.9
20260506221003 16 201 1.6 9.7 0.00 0.38 0.38 86 1003.8
20260506220505 16 210 1.6 9.7 0.00 0.38 0.38 86 1003.9
20260506220003 16 186 1.6 9.7 0.00 0.38 0.38 86 1003.9
20260506215503 16 180 1.6 8.0 0.00 0.38 0.38 86 1004.0
20260506215003 16 180 0.0 8.0 0.00 0.38 0.38 86 1003.9
20260506214505 16 202 1.6 12.9 0.00 0.38 0.38 86 1003.9
20260506214003 16 213 1.6 12.9 0.00 0.38 0.38 86 1003.9
20260506213503 16 212 0.0 11.3 0.00 0.38 0.38 87 1003.9
20260506213003 16 214 1.6 12.9 0.00 0.38 0.38 86 1003.9
20260506212505 16 204 1.6 12.9 0.00 0.38 0.38 86 1003.9
20260506212003 16 210 1.6 17.7 0.00 0.38 0.38 88 1004.0
20260506211503 16 222 0.0 17.7 0.00 0.38 0.38 88 1004.0
20260506211003 16 203 0.0 6.4 0.00 0.38 0.38 89 1004.1
20260506210505 16 157 0.0 4.8 0.00 0.38 0.38 89 1004.1
20260506210003 16 156 1.6 14.5 0.03 0.38 0.38 89 1004.1
20260506205503 16 189 1.6 14.5 0.05 0.38 0.38 89 1004.1
20260506205003 16 201 3.2 16.1 0.05 0.38 0.38 89 1004.2
20260506204503 16 203 4.8 20.9 0.08 0.38 0.38 89 1004.2
20260506204215 16 207 1.6 20.9 0.08 0.38 0.38 89 1004.2
20260506203503 16 270 0.0 3.2 0.10 0.38 0.38 91 1004.2
20260506203003 16 221 0.0 4.8 0.13 0.38 0.38 90 1004.2
20260506202714 16 213 0.0 4.8 0.13 0.38 0.38 90 1004.2
20260506202003 16 200 0.0 11.3 0.15 0.38 0.38 91 1004.3
20260506201715 16 197 1.6 16.1 0.15 0.38 0.38 90 1004.3
20260506201003 16 190 1.6 17.7 0.15 0.38 0.38 90 1004.2
20260506200503 16 196 0.0 11.3 0.15 0.38 0.38 91 1004.3
20260506200003 16 192 0.0 6.4 0.15 0.36 0.36 90 1004.3
20260506195505 16 231 0.0 3.2 0.13 0.33 0.33 91 1004.5
20260506195005 16 186 0.0 9.7 0.13 0.33 0.33 91 1004.5
20260506194713 16 204 0.0 12.9 0.13 0.33 0.33 91 1004.6
20260506194212 16 237 0.0 12.9 0.10 0.30 0.30 91 1004.7
20260506193505 16 0 0.0 0.0 0.10 0.28 0.28 91 1004.8
20260506193003 16 0 0.0 0.0 0.08 0.25 0.25 90 1004.7
20260506192713 16 0 0.0 0.0 0.08 0.25 0.25 90 1004.8
20260506192005 16 233 0.0 3.2 0.08 0.23 0.23 91 1004.9
20260506191713 16 233 0.0 3.2 0.08 0.23 0.23 91 1004.9
20260506191214 16 0 0.0 0.0 0.08 0.23 0.23 90 1004.9
20260506190505 16 0 0.0 0.0 0.10 0.23 0.23 90 1004.8
20260506190003 16 0 0.0 0.0 0.08 0.20 0.20 89 1004.7
20260506185503 16 0 0.0 0.0 0.08 0.20 0.20 89 1004.7
20260506185005 16 81 0.0 3.2 0.10 0.20 0.20 90 1004.9
20260506184503 16 81 0.0 3.2 0.10 0.20 0.20 90 1005.2
20260506184214 16 200 0.0 3.2 0.13 0.20 0.20 90 1005.4
20260506183505 16 216 1.6 8.0 0.10 0.18 0.18 89 1005.5
20260506183003 16 212 1.6 8.0 0.13 0.18 0.18 89 1005.6
20260506182715 16 208 0.0 8.0 0.13 0.18 0.18 90 1005.7
20260506182005 16 206 0.0 6.4 0.13 0.15 0.15 89 1006.0
20260506181503 16 242 0.0 4.8 0.13 0.15 0.15 89 1006.0
20260506181003 16 241 0.0 4.8 0.15 0.15 0.15 89 1005.9
20260506180505 16 204 0.0 11.3 0.13 0.13 0.13 89 1005.9
20260506180004 16 213 1.6 11.3 0.13 0.13 0.13 88 1006.1
20260506175503 16 219 0.0 6.4 0.13 0.13 0.13 88 1006.1
20260506175005 16 201 0.0 4.8 0.10 0.10 0.10 88 1006.2
20260506174503 16 213 0.0 4.8 0.10 0.10 0.10 87 1006.3
20260506174003 16 213 0.0 4.8 0.08 0.08 0.08 86 1006.4
20260506173504 16 210 0.0 6.4 0.08 0.08 0.08 84 1006.4
20260506173003 16 220 0.0 6.4 0.05 0.05 0.05 85 1006.5
20260506172503 16 225 0.0 3.2 0.03 0.03 0.03 83 1006.4
20260506172003 17 213 0.0 14.5 0.03 0.03 0.03 80 1006.4
20260506171505 17 210 0.0 14.5 0.03 0.03 0.03 79 1006.4
20260506171003 17 205 1.6 11.3 0.00 0.00 0.00 78 1006.3
20260506170503 17 205 1.6 11.3 0.00 0.00 0.00 74 1006.3
20260506170005 18 204 0.0 11.3 0.00 0.00 0.00 74 1006.3
20260506165503 18 232 0.0 8.0 0.00 0.00 0.00 72 1006.2
20260506165003 19 205 1.6 12.9 0.00 0.00 0.00 69 1006.3